When you browse on this site, cookies collect data to enhance your experience and personalize the content and advertising you see.
Visit our Privacy Policy to learn more. By continuing to use the site, you agree to this use of cookies and data.
  • In France
  • List of Countries
  • For 7 days
  • Water Temperature
  • Satellite Maps
  • Weather Map
  • Weather Widgets
  • user-avatar
    Login

    Hourly Weather Lubango

    Today, 19 January, Saturday

    Time Temperature Precipitation Wind Pressure Humidity
    00:00 +16°C° 0.2 mm 1 mps 608 mmHg 70%
    01:00 +16°C° 0 mm 1 mps 608 mmHg 70%
    02:00 +16°C° 0 mm 1 mps 608 mmHg 71%
    03:00 +16°C° 0 mm 1 mps 607 mmHg 72%
    04:00 +15°C° 0 mm 1 mps 607 mmHg 73%
    05:00 +16°C° 0 mm 1 mps 608 mmHg 72%
    06:00 +16°C° 0 mm 1 mps 608 mmHg 70%
    07:00 +16°C° 0 mm 1 mps 608 mmHg 69%
    08:00 +19°C° 0 mm 1 mps 609 mmHg 61%
    09:00 +21°C° 0 mm 1 mps 610 mmHg 53%
    10:00 +23°C° 0 mm 2 mps 611 mmHg 44%
    11:00 +24°C° 0 mm 2 mps 611 mmHg 43%
    12:00 +25°C° 0 mm 2 mps 611 mmHg 42%
    13:00 +26°C° 0 mm 2 mps 611 mmHg 40%
    14:00 +25°C° 0 mm 2 mps 610 mmHg 42%
    15:00 +24°C° 0 mm 2 mps 610 mmHg 44%
    16:00 +24°C° 0 mm 2 mps 609 mmHg 46%
    17:00 +21°C° 0 mm 2 mps 609 mmHg 53%
    18:00 +20°C° 0 mm 2 mps 609 mmHg 60%
    19:00 +18°C° 0 mm 2 mps 608 mmHg 66%
    20:00 +17°C° 0 mm 2 mps 608 mmHg 73%
    21:00 +16°C° 0 mm 1 mps 608 mmHg 79%
    22:00 +15°C° 0 mm 1 mps 608 mmHg 85%
    23:00 +15°C° 0 mm 1 mps 608 mmHg 88%

    Tomorrow, 20 January, Sunday

    Time Temperature Precipitation Wind Pressure Humidity
    00:00 +14°C° 0 mm 1 mps 608 mmHg 91%
    01:00 +14°C° 0 mm 1 mps 608 mmHg 94%
    02:00 +14°C° 0 mm 1 mps 608 mmHg 94%
    03:00 +14°C° 0 mm 1 mps 608 mmHg 95%
    04:00 +13°C° 0 mm 1 mps 607 mmHg 95%
    05:00 +14°C° 0.2 mm 1 mps 608 mmHg 92%
    06:00 +14°C° 0.2 mm 0 mps 608 mmHg 89%
    07:00 +14°C° 0.2 mm 0 mps 609 mmHg 86%
    08:00 +19°C° 0 mm 1 mps 610 mmHg 74%
    09:00 +22°C° 0 mm 1 mps 611 mmHg 63%
    10:00 +24°C° 0 mm 1 mps 612 mmHg 51%
    11:00 +24°C° 0 mm 1 mps 611 mmHg 51%
    12:00 +24°C° 0 mm 1 mps 611 mmHg 50%
    13:00 +24°C° 0 mm 1 mps 610 mmHg 50%
    14:00 +24°C° 0 mm 2 mps 610 mmHg 52%
    15:00 +23°C° 0 mm 2 mps 609 mmHg 54%
    16:00 +23°C° 0 mm 2 mps 608 mmHg 56%
    17:00 +20°C° 0.1 mm 2 mps 608 mmHg 62%
    18:00 +19°C° 0.1 mm 2 mps 608 mmHg 68%
    19:00 +18°C° 0.1 mm 2 mps 608 mmHg 73%
    20:00 +19°C° 0.1 mm 1 mps 609 mmHg 77%
    21:00 +18°C° 0.1 mm 1 mps 609 mmHg 81%
    22:00 +15°C° 0.1 mm 0 mps 609 mmHg 84%
    23:00 +15°C° 0.3 mm 0 mps 609 mmHg 86%

    Day after tomorrow, 21 January, Monday

    Time Temperature Precipitation Wind Pressure Humidity
    00:00 +15°C° 0.3 mm 0 mps 609 mmHg 87%
    01:00 +15°C° 0.3 mm 0 mps 609 mmHg 88%
    02:00 +15°C° 0.4 mm 0 mps 608 mmHg 89%
    03:00 +14°C° 0.4 mm 0 mps 608 mmHg 91%
    04:00 +14°C° 0.4 mm 0 mps 608 mmHg 92%
    05:00 +15°C° 0.1 mm 0 mps 608 mmHg 90%
    06:00 +15°C° 0.1 mm 0 mps 609 mmHg 88%
    07:00 +15°C° 0.1 mm 0 mps 609 mmHg 86%
    08:00 +20°C° 0.3 mm 1 mps 610 mmHg 77%
    09:00 +22°C° 0.3 mm 1 mps 611 mmHg 67%
    10:00 +24°C° 0.3 mm 1 mps 612 mmHg 57%
    11:00 +24°C° 0.4 mm 1 mps 612 mmHg 55%
    12:00 +25°C° 0.4 mm 1 mps 611 mmHg 53%
    13:00 +25°C° 0.4 mm 1 mps 611 mmHg 51%
    14:00 +25°C° 0.3 mm 2 mps 610 mmHg 53%
    15:00 +24°C° 0.3 mm 2 mps 609 mmHg 55%
    16:00 +23°C° 0.3 mm 2 mps 609 mmHg 57%
    17:00 +21°C° 0.3 mm 2 mps 608 mmHg 63%
    18:00 +20°C° 0.3 mm 2 mps 608 mmHg 69%
    19:00 +19°C° 0.3 mm 2 mps 608 mmHg 74%
    20:00 +19°C° 0.1 mm 1 mps 609 mmHg 78%
    21:00 +18°C° 0.1 mm 1 mps 609 mmHg 82%
    22:00 +16°C° 0.1 mm 0 mps 609 mmHg 86%
    23:00 +15°C° 0.1 mm 0 mps 609 mmHg 88%

    22 January, Tuesday

    Time Temperature Precipitation Wind Pressure Humidity
    00:00 +15°C° 0.1 mm 0 mps 609 mmHg 90%
    01:00 +15°C° 0.1 mm 0 mps 608 mmHg 92%
    02:00 +15°C° 0 mm 0 mps 608 mmHg 92%
    03:00 +16°C° 0 mm 1 mps 608 mmHg 91%
    04:00 +16°C° 0 mm 1 mps 608 mmHg 90%
    05:00 +16°C° 0 mm 1 mps 608 mmHg 87%
    06:00 +15°C° 0 mm 0 mps 609 mmHg 85%
    07:00 +16°C° 0 mm 0 mps 609 mmHg 82%
    08:00 +20°C° 0.2 mm 1 mps 610 mmHg 73%
    09:00 +23°C° 0.2 mm 1 mps 611 mmHg 63%
    10:00 +25°C° 0.2 mm 2 mps 612 mmHg 54%
    11:00 +25°C° 0.6 mm 2 mps 611 mmHg 55%
    12:00 +24°C° 0.6 mm 1 mps 611 mmHg 55%
    13:00 +24°C° 0.6 mm 1 mps 610 mmHg 56%
    14:00 +24°C° 0.3 mm 2 mps 609 mmHg 57%
    15:00 +23°C° 0.3 mm 2 mps 609 mmHg 59%
    16:00 +22°C° 0.3 mm 3 mps 608 mmHg 60%
    17:00 +20°C° 0.2 mm 2 mps 608 mmHg 65%
    18:00 +19°C° 0.2 mm 2 mps 608 mmHg 70%
    19:00 +18°C° 0.2 mm 2 mps 608 mmHg 76%
    20:00 +17°C° 0.3 mm 2 mps 608 mmHg 78%
    21:00 +17°C° 0.3 mm 2 mps 609 mmHg 80%
    22:00 +16°C° 0.3 mm 2 mps 609 mmHg 82%
    23:00 +16°C° 0.3 mm 1 mps 609 mmHg 83%

    23 January, Wednesday

    Time Temperature Precipitation Wind Pressure Humidity
    00:00 +16°C° 0.3 mm 1 mps 608 mmHg 83%
    01:00 +16°C° 0.3 mm 1 mps 608 mmHg 83%
    02:00 +16°C° 0 mm 1 mps 608 mmHg 82%
    03:00 +16°C° 0 mm 1 mps 607 mmHg 82%
    04:00 +16°C° 0 mm 1 mps 607 mmHg 81%
    05:00 +16°C° 0 mm 1 mps 608 mmHg 78%
    06:00 +18°C° 0 mm 1 mps 608 mmHg 76%
    07:00 +16°C° 0 mm 0 mps 609 mmHg 73%
    08:00 +21°C° 0 mm 1 mps 610 mmHg 62%
    09:00 +24°C° 0 mm 1 mps 611 mmHg 52%
    10:00 +27°C° 0 mm 2 mps 612 mmHg 41%
    11:00 +27°C° 0 mm 2 mps 611 mmHg 41%
    12:00 +27°C° 0 mm 2 mps 610 mmHg 41%
    13:00 +26°C° 0 mm 2 mps 609 mmHg 41%
    14:00 +25°C° 0 mm 2 mps 609 mmHg 43%
    15:00 +25°C° 0 mm 2 mps 608 mmHg 45%
    16:00 +24°C° 0 mm 2 mps 608 mmHg 47%
    17:00 +23°C° 0 mm 2 mps 607 mmHg 52%
    18:00 +20°C° 0 mm 2 mps 607 mmHg 57%
    19:00 +19°C° 0 mm 2 mps 607 mmHg 62%
    20:00 +19°C° 0 mm 1 mps 607 mmHg 68%
    21:00 +16°C° 0 mm 1 mps 607 mmHg 73%
    22:00 +15°C° 0 mm 1 mps 607 mmHg 78%
    23:00 +15°C° 0 mm 1 mps 607 mmHg 79%

    24 January, Thursday

    Time Temperature Precipitation Wind Pressure Humidity
    00:00 +15°C° 0 mm 1 mps 607 mmHg 80%
    01:00 +14°C° 0 mm 1 mps 606 mmHg 80%
    02:00 +14°C° 0 mm 1 mps 606 mmHg 80%
    03:00 +14°C° 0 mm 1 mps 606 mmHg 79%
    04:00 +14°C° 0 mm 1 mps 605 mmHg 78%
    05:00 +14°C° 0 mm 0 mps 606 mmHg 74%
    06:00 +15°C° 0 mm 0 mps 607 mmHg 69%
    07:00 +16°C° 0 mm 0 mps 608 mmHg 65%
    08:00 +21°C° 0 mm 1 mps 609 mmHg 55%
    09:00 +24°C° 0 mm 1 mps 610 mmHg 46%
    10:00 +27°C° 0 mm 1 mps 611 mmHg 36%
    11:00 +28°C° 0 mm 1 mps 611 mmHg 35%
    12:00 +28°C° 0 mm 1 mps 610 mmHg 34%
    13:00 +29°C° 0 mm 2 mps 610 mmHg 33%
    14:00 +27°C° 0 mm 2 mps 609 mmHg 37%
    15:00 +26°C° 0 mm 2 mps 608 mmHg 41%
    16:00 +25°C° 0 mm 2 mps 607 mmHg 46%
    17:00 +23°C° 0 mm 2 mps 607 mmHg 52%
    18:00 +21°C° 0 mm 2 mps 607 mmHg 59%
    19:00 +20°C° 0 mm 2 mps 607 mmHg 65%
    20:00 +20°C° 0 mm 1 mps 607 mmHg 70%
    21:00 +18°C° 0 mm 1 mps 607 mmHg 75%
    22:00 +16°C° 0 mm 1 mps 607 mmHg 81%
    23:00 +16°C° 0 mm 1 mps 607 mmHg 80%
    Show more